FENGYUN 1C DEB, 30320

Orbit data source: Space-Track

FENGYUN 1C DEB, 30320 is space debris in SSO originally from a launch on Mon, 10 May 1999 UTC launched from the Taiyaun Space Center, China (TSC). Fengyun 1C debris stems from the Chinese weather satellite Fengyun-1C, which was intentionally destroyed by a Chinese anti-satellite missile in 2007. This event dramatically increased the amount of space debris, with thousands of trackable fragments posing hazards to satellites and human spaceflight. The Fengyun 1C debris cloud has become a focal point in discussions about space sustainability and the need for international regulations to prevent the creation of new debris.

Loading next visibility...
Identifier
30320, 1999-025AAH
Orbit
SSO
Last TLE update
12 hours ago
Origin
Manufacturer
Unknown
Mission
Spacecraft
Bus & Motor
Unknown
Mass
Unknown
Launch date (UTC)
1999-05-10 (26 years ago)
Launch vehicle
Unknown
Launch site
Taiyaun Space Center, China (TSC)
Object type
Payload
Rocket body
Debris
Shape & HBR
Unknown
Radar Cross Section
Small (<0.1 m²)

Expand to show TLE details & history

TLE from 12 hours ago
0 FENGYUN 1C DEB
1 30320U 99025AAH 25127.14664840  .00000295  00000-0  23008-3 0  9995
2 30320  99.2108 185.7198 0086706 175.4389 211.5222 13.98412186933476
Epoch: 2025-05-07T03:31Z
Definitive object data (Epoch: 2025-05-07T03:31:10.421Z)
Latitude
26.1135°
Longitude
-96.84466°
Altitude
956.375 km
Speed
7.348 km/s
True Right ascension
12h 04m 44s
True Declination
25° 58' 53"
Sunlit
Object was in full shadow at TLE epoch
Visualization TLE readout
Latitude
-56.82295°
Longitude
-77.53946°
Altitude
959.881 km
Speed
7.351 km/s
Apparent Right ascension
12h 09m 29s
Apparent Declination
-49° 57' 55"
Sunlit
Object is in full shadow
Visualization observer readout
Local Sidereal Time
23:10:17
Azimuth
221.125° SW
Elevation
-75.533°
Doppler factor
1
Orbital elements
Apogee altitude
959.586 km
Perigee altitude
833.435 km
Semi-major axis
7,274.647 km
Eccentricity
0.0086706
Inclination
99.2108°
RAAN
185.7198°
Arg. of periapsis
175.4389°
True anomaly
211.00749°
Mean anomaly
211.5222°
Eccentric anomaly
211.26437°
Mean motion
3.49804 °/min
BSTAR
0.00023008
Orbital period
102.91 mins
Loading maneuver chart data...
Loading SW <> Apogee altitude chart data...
Loading historical data...
Loading historical data...
Loading historical data...
Loading historical data...
Loading historical data...
Loading historical data...
Loading historical data...

FENGYUN 1C DEB Visibility forecast

Observer location: undefined°, undefined°

Span
Click to sort rows by Start time (UTC) header in descending order
Start Az.
Max El. time (UTC)
Max El. Az.
Max El.
End time (UTC)
End Az.
9 mins2025-05-07 16:00:54.723Z36.736° NE2025-05-07 16:04:54.723Z89.864° E28.546°2025-05-07 16:09:54.723Z160.073° S
7 mins2025-05-07 17:43:54.723Z340.606° N2025-05-07 17:46:54.723Z291.652° WNW27.358°2025-05-07 17:50:54.723Z237.092° WSW
9 mins2025-05-08 03:33:54.723Z152.139° SSE2025-05-08 03:37:54.723Z71.806° E43.397°2025-05-08 03:42:54.723Z351.54° N
5 mins2025-05-08 05:17:54.723Z244.802° WSW2025-05-08 05:19:54.723Z267.531° W15.763°2025-05-08 05:22:54.723Z300.472° NW
|